Location: Nashville
(36.1660°N, 86.7840°W)
Time: 13:37:41
(UTC-06:00)

Explorer 11/Cluster Stage 4 - Visible Passes

Search period start: 25 January 2022 00:00
Search period end: 04 February 2022 00:00
Orbit: 467 x 1255 km, 28.8° (Epoch: 25 January)

Date Brightness Start Highest point End Pass type
(mag) Time Alt. Az. Time Alt. Az. Time Alt. Az.
25 Jan 7.4 05:33:58 17° SW 05:35:53 25° S 05:39:23 10° SE visible
26 Jan 7.3 05:23:24 19° SW 05:24:34 22° S 05:27:47 10° SE visible
27 Jan 7.4 05:12:50 20° SSW 05:13:16 20° S 05:16:12 10° SE visible
28 Jan 7.6 05:02:17 17° S 05:02:17 17° S 05:04:34 10° SSE visible
29 Jan 8.0 04:51:44 14° S 04:51:44 14° S 04:52:55 10° SSE visible
